Tracking 35275 objects as of 9-Sep-2026
HD Live streaming from Space Station
objects crossing your sky now

AL FARABI 2


AL FARABI 2 is no longer on orbit
AL FARABI 2 is classified as:


NORAD ID: 43805
Int'l Code: 2018-099AZ
Launch date: December 3, 2018
Source: Kazakhstan (KAZ)
Launch site: AIR FORCE WESTERN TEST RANGE (AFWTR)
Decay date: 2026-05-07

Uplink (MHz):
Downlink (MHz): 436.500
Beacon (MHz): 436.500
Mode: 4k8 GMSK CW
Call sign: UN1GWA
Status: Inactive

Your satellite tracking list
Your tracking list is empty




NASA's NSSDC Master Catalog

Two Line Element Set (TLE):
1 43805U 18099AZ  26127.60098663  .13434312  25576-5  37545-3 0  9991
2 43805  97.3775 208.2064 0016182 267.9986  91.9462 16.43928781408683
Source of the keplerian elements: AFSPC